FW7817 Weather Reports


Display with metric or nautical units.
time (UTC)temp
F
wind
direction
speed
MPH
gust
MPH
rain 1hr
in
rain 24hr
in
rain mn
in
humidity
%
barometer
mb
20260831231100 98 164 2.0 7.0 0.00 0.00 0.00 41 1014.0
20260831230557 98 139 2.0 7.0 0.00 0.00 0.00 41 1013.9
20260831230057 98 143 2.0 7.0 0.00 0.00 0.00 42 1013.9
20260831225557 99 161 2.0 9.0 0.00 0.00 0.00 40 1014.0
20260831225057 99 133 2.0 9.0 0.00 0.00 0.00 41 1014.0
20260831224557 99 156 2.0 5.0 0.00 0.00 0.00 41 1014.0
20260831224057 99 187 2.0 6.0 0.00 0.00 0.00 40 1014.0
20260831223556 99 104 2.0 6.0 0.00 0.00 0.00 41 1014.0
20260831222556 99 163 2.0 9.0 0.00 0.00 0.00 38 1014.1
20260831222050 100 214 2.0 9.0 0.00 0.00 0.00 40 1014.1
20260831221543 100 119 2.0 7.0 0.00 0.00 0.00 39 1014.1
20260831221038 100 130 2.0 7.0 0.00 0.00 0.00 40 1014.1
20260831220025 100 229 2.0 5.0 0.00 0.00 0.00 39 1014.1
20260831215014 100 272 1.0 5.0 0.00 0.00 0.00 39 1014.1
20260831214507 101 217 1.0 7.0 0.00 0.00 0.00 39 1014.2
20260831213509 101 133 2.0 7.0 0.00 0.00 0.00 38 1014.2
20260831213009 101 181 2.0 7.0 0.00 0.00 0.00 38 1014.1
20260831212508 101 135 2.0 6.0 0.00 0.00 0.00 38 1014.2
20260831212009 101 153 1.0 5.0 0.00 0.00 0.00 40 1014.3
20260831211507 101 178 1.0 5.0 0.00 0.00 0.00 40 1014.3
20260831211006 101 254 3.0 7.0 0.00 0.00 0.00 39 1014.3
20260831210506 101 187 3.0 8.0 0.00 0.00 0.00 40 1014.2
20260831210004 101 117 2.0 8.0 0.00 0.00 0.00 39 1014.3
20260831205004 101 146 2.0 7.0 0.00 0.00 0.00 39 1014.5
20260831204502 101 51 2.0 7.0 0.00 0.00 0.00 39 1014.5
20260831204000 101 132 2.0 7.0 0.00 0.00 0.00 40 1014.6
20260831203509 101 86 2.0 6.0 0.00 0.00 0.00 40 1014.5
20260831202500 101 172 2.0 7.0 0.00 0.00 0.00 40 1014.6
20260831202010 101 166 2.0 8.0 0.00 0.00 0.00 40 1014.8
20260831200947 101 161 3.0 8.0 0.00 0.00 0.00 40 1014.8
20260831200441 100 133 2.0 7.0 0.00 0.00 0.00 40 1014.6
20260831195935 100 223 2.0 7.0 0.00 0.00 0.00 40 1014.9
20260831194923 100 200 2.0 9.0 0.00 0.00 0.00 39 1014.8
20260831194418 101 158 2.0 8.0 0.00 0.00 0.00 39 1015.0
20260831193912 100 167 2.0 8.0 0.00 0.00 0.00 39 1014.9
20260831192900 100 186 2.0 7.0 0.00 0.00 0.00 39 1015.0
20260831192354 100 213 2.0 7.0 0.00 0.00 0.00 41 1015.0
20260831191341 99 151 2.0 8.0 0.00 0.00 0.00 43 1015.1
20260831190330 99 161 2.0 8.0 0.00 0.00 0.00 44 1015.1
20260831185823 99 80 2.0 9.0 0.00 0.00 0.00 42 1015.2
20260831185317 98 171 2.0 9.0 0.00 0.00 0.00 43 1015.2
20260831184811 98 224 2.0 7.0 0.00 0.00 0.00 43 1015.2
20260831184305 98 150 2.0 7.0 0.00 0.00 0.00 43 1015.1
20260831183800 98 182 2.0 7.0 0.00 0.00 0.00 42 1015.2
20260831182748 98 113 2.0 8.0 0.00 0.00 0.00 43 1015.2
20260831182242 97 80 2.0 9.0 0.00 0.00 0.00 43 1015.2
20260831181736 97 131 2.0 9.0 0.00 0.00 0.00 45 1015.3
20260831181229 98 286 2.0 8.0 0.00 0.00 0.00 44 1015.4
20260831175711 97 148 2.0 6.0 0.00 0.00 0.00 44 1015.4
20260831174700 97 227 1.0 8.0 0.00 0.00 0.00 46 1015.5
20260831174154 97 157 2.0 7.0 0.00 0.00 0.00 45 1015.5
20260831173647 97 227 1.0 7.0 0.00 0.00 0.00 46 1015.5
20260831173142 97 187 1.0 5.0 0.00 0.00 0.00 45 1015.6
20260831172635 97 189 2.0 6.0 0.00 0.00 0.00 45 1015.6
20260831171624 96 142 1.0 5.0 0.00 0.00 0.00 48 1015.7
20260831170106 96 267 1.0 4.0 0.00 0.00 0.00 47 1015.7
20260831165600 96 134 1.0 4.0 0.00 0.00 0.00 49 1015.7
20260831165053 96 217 1.0 6.0 0.00 0.00 0.00 50 1015.6
20260831164548 95 216 1.0 6.0 0.00 0.00 0.00 47 1015.8
20260831164041 94 250 1.0 4.0 0.00 0.00 0.00 50 1015.8
20260831163536 95 150 1.0 5.0 0.00 0.00 0.00 49 1015.7
20260831163029 95 171 1.0 5.0 0.00 0.00 0.00 51 1015.7
20260831162524 94 124 1.0 6.0 0.00 0.00 0.00 50 1015.7
20260831161521 93 175 1.0 8.0 0.00 0.00 0.00 51 1015.8
20260831161021 93 198 1.0 8.0 0.00 0.00 0.00 50 1015.9
20260831160520 93 171 1.0 8.0 0.00 0.00 0.00 51 1015.9
20260831160018 92 270 1.0 4.0 0.00 0.00 0.00 52 1016.0
20260831155518 92 162 1.0 3.0 0.00 0.00 0.00 53 1016.0
20260831155018 92 275 1.0 7.0 0.00 0.00 0.00 53 1016.0
20260831154516 91 263 1.0 7.0 0.00 0.00 0.00 54 1016.0
20260831154016 91 209 1.0 4.0 0.00 0.00 0.00 54 1015.9
20260831153515 90 175 1.0 4.0 0.00 0.00 0.00 56 1015.9
20260831153015 90 174 1.0 6.0 0.00 0.00 0.00 56 1015.9
20260831152515 89 155 1.0 6.0 0.00 0.00 0.00 56 1015.8
20260831152016 88 171 1.0 3.0 0.00 0.00 0.00 58 1015.9
20260831151516 88 238 1.0 7.0 0.00 0.00 0.00 58 1015.9
20260831151015 87 166 1.0 7.0 0.00 0.00 0.00 59 1016.0
20260831150518 87 258 1.0 7.0 0.00 0.00 0.00 57 1016.1
20260831150019 86 198 1.0 8.0 0.00 0.00 0.00 58 1016.1
20260831144516 86 244 1.0 5.0 0.00 0.00 0.00 58 1016.1
20260831144016 85 235 1.0 7.0 0.00 0.00 0.00 60 1016.2
20260831143516 85 229 1.0 7.0 0.00 0.00 0.00 59 1016.2
20260831143015 85 204 1.0 7.0 0.00 0.00 0.00 59 1016.2
20260831142515 85 220 1.0 7.0 0.00 0.00 0.00 59 1016.2
20260831141516 85 206 1.0 9.0 0.00 0.00 0.00 59 1016.3
20260831141016 84 244 2.0 9.0 0.00 0.00 0.00 59 1016.3
20260831140515 84 210 2.0 9.0 0.00 0.00 0.00 60 1016.2
20260831140016 83 255 2.0 10.0 0.00 0.00 0.00 61 1016.3
20260831135516 82 273 1.0 10.0 0.00 0.00 0.00 63 1016.2
20260831135013 82 139 1.0 8.0 0.00 0.00 0.00 63 1016.1
20260831134512 81 178 2.0 8.0 0.00 0.00 0.00 64 1016.0
20260831134006 80 172 2.0 7.0 0.00 0.00 0.00 64 1016.0
20260831133501 80 222 1.0 7.0 0.00 0.00 0.00 65 1016.0
20260831133001 79 206 1.0 6.0 0.00 0.00 0.00 67 1015.9
20260831132502 78 169 1.0 6.0 0.00 0.00 0.00 68 1015.9
20260831132001 78 169 2.0 7.0 0.00 0.00 0.00 68 1015.8
20260831131459 77 194 2.0 7.0 0.00 0.00 0.00 69 1015.8
20260831131000 77 188 1.0 5.0 0.00 0.00 0.00 70 1015.7
20260831130502 76 169 1.0 4.0 0.00 0.00 0.00 70 1015.7
20260831130004 76 203 2.0 7.0 0.00 0.00 0.00 70 1015.7
20260831124955 76 173 1.0 7.0 0.00 0.00 0.00 71 1015.4
20260831124455 76 161 1.0 7.0 0.00 0.00 0.00 71 1015.5
20260831123955 75 130 1.0 3.0 0.00 0.00 0.00 71 1015.5
20260831122953 75 142 0.0 8.0 0.00 0.00 0.00 71 1015.5
20260831121953 75 215 1.0 4.0 0.00 0.00 0.00 70 1015.5
20260831121453 76 185 1.0 6.0 0.00 0.00 0.00 70 1015.4
20260831120951 76 147 1.0 6.0 0.00 0.00 0.00 70 1015.4
20260831120453 76 150 1.0 3.0 0.00 0.00 0.00 70 1015.3
20260831115947 76 162 0.0 3.0 0.00 0.00 0.00 69 1015.3
20260831115441 76 176 0.0 3.0 0.00 0.00 0.00 69 1015.2
20260831114935 76 178 0.0 2.0 0.00 0.00 0.00 69 1015.2
20260831114429 76 214 0.0 3.0 0.00 0.00 0.00 69 1015.1
20260831113923 76 143 0.0 3.0 0.00 0.00 0.00 68 1015.0
20260831113417 76 177 0.0 4.0 0.00 0.00 0.00 68 1015.0
20260831112911 76 168 0.0 4.0 0.00 0.00 0.00 68 1015.0
20260831112406 77 225 1.0 4.0 0.00 0.00 0.00 67 1014.9
20260831111859 77 183 0.0 4.0 0.00 0.00 0.00 67 1014.8
20260831111354 77 175 1.0 2.0 0.00 0.00 0.00 67 1014.8
20260831110847 77 206 1.0 3.0 0.00 0.00 0.00 67 1014.8
20260831110341 77 103 1.0 3.0 0.00 0.00 0.00 66 1014.5
20260831105835 77 169 1.0 5.0 0.00 0.00 0.00 66 1014.6
20260831105329 78 152 2.0 5.0 0.00 0.00 0.00 66 1014.5
20260831104823 78 159 2.0 5.0 0.00 0.00 0.00 65 1014.5
20260831104317 78 147 1.0 5.0 0.00 0.00 0.00 65 1014.5
20260831103811 78 150 1.0 4.0 0.00 0.00 0.00 65 1014.7
20260831103305 78 141 1.0 5.0 0.00 0.00 0.00 64 1014.7
20260831102253 79 142 1.0 5.0 0.00 0.00 0.00 64 1014.6
20260831100735 79 148 0.0 3.0 0.00 0.00 0.00 62 1014.4
20260831095723 80 146 0.0 2.0 0.00 0.00 0.00 61 1014.3
20260831094711 80 270 0.0 2.0 0.00 0.00 0.00 61 1014.0
20260831094205 80 161 1.0 4.0 0.00 0.00 0.00 60 1013.9
20260831093659 80 270 1.0 6.0 0.00 0.00 0.00 60 1013.9
20260831093153 80 192 1.0 6.0 0.00 0.00 0.00 60 1013.6
20260831092647 81 178 2.0 6.0 0.00 0.00 0.00 60 1013.5
20260831092142 81 348 2.0 6.0 0.00 0.00 0.00 59 1013.5
20260831091636 81 142 1.0 5.0 0.00 0.00 0.00 59 1013.4
20260831091129 81 171 1.0 5.0 0.00 0.00 0.00 59 1013.3
20260831090623 81 190 1.0 6.0 0.00 0.00 0.00 58 1013.3
20260831090118 82 162 1.0 6.0 0.00 0.00 0.00 58 1012.9
20260831085612 82 167 2.0 5.0 0.00 0.00 0.00 58 1013.2
20260831085106 82 123 2.0 7.0 0.00 0.00 0.00 58 1013.0
20260831084053 82 144 1.0 4.0 0.00 0.00 0.00 57 1012.9
20260831083547 82 170 1.0 2.0 0.00 0.00 0.00 57 1013.0
20260831083041 82 185 1.0 5.0 0.00 0.00 0.00 57 1013.0
20260831082535 82 131 1.0 5.0 0.00 0.00 0.00 57 1012.8
20260831082033 82 162 1.0 4.0 0.00 0.00 0.00 57 1012.8
20260831080531 83 179 2.0 7.0 0.00 0.00 0.00 56 1012.8
20260831080030 83 153 2.0 7.0 0.00 0.00 0.00 56 1012.7
20260831075531 83 207 2.0 6.0 0.00 0.00 0.00 56 1012.7
20260831075029 83 169 1.0 7.0 0.00 0.00 0.00 56 1012.8
20260831074529 83 153 1.0 7.0 0.00 0.00 0.00 56 1012.9
20260831074028 83 192 1.0 4.0 0.00 0.00 0.00 56 1012.9
20260831073528 83 155 1.0 4.0 0.00 0.00 0.00 56 1013.0
20260831073029 83 155 1.0 4.0 0.00 0.00 0.00 56 1013.0
20260831072529 83 205 2.0 7.0 0.00 0.00 0.00 56 1012.9
20260831072026 83 182 2.0 7.0 0.00 0.00 0.00 56 1013.0
20260831071527 83 186 1.0 5.0 0.00 0.00 0.00 56 1013.2
20260831071027 83 127 1.0 4.0 0.00 0.00 0.00 56 1013.0
20260831070523 83 115 1.0 3.0 0.00 0.00 0.00 56 1013.2
20260831065022 83 187 1.0 6.0 0.00 0.00 0.00 55 1013.2
20260831064523 84 188 1.0 4.0 0.00 0.00 0.00 55 1013.2
20260831064022 84 107 2.0 4.0 0.00 0.00 0.00 55 1013.0
20260831063522 84 150 2.0 8.0 0.00 0.00 0.00 55 1013.2
20260831063023 84 152 2.0 8.0 0.00 0.00 0.00 55 1013.0
20260831062523 84 156 1.0 6.0 0.00 0.00 0.00 54 1013.0
20260831062018 84 331 1.0 6.0 0.00 0.00 0.00 54 1012.9
20260831061519 84 184 1.0 6.0 0.00 0.00 0.00 54 1012.9
20260831060519 85 242 1.0 5.0 0.00 0.00 0.00 54 1012.8
20260831060018 85 142 1.0 5.0 0.00 0.00 0.00 54 1012.8
20260831055522 85 324 1.0 7.0 0.00 0.00 0.00 54 1012.6
20260831055022 85 189 2.0 8.0 0.00 0.00 0.00 54 1012.5
20260831054521 85 165 2.0 8.0 0.00 0.00 0.00 54 1012.5
20260831054022 85 150 2.0 5.0 0.00 0.00 0.00 54 1012.3
20260831053513 85 200 2.0 5.0 0.00 0.00 0.00 53 1012.3
20260831053008 85 211 2.0 5.0 0.00 0.00 0.00 53 1012.2
20260831052502 85 166 1.0 5.0 0.00 0.00 0.00 53 1012.3
20260831051956 85 124 2.0 7.0 0.00 0.00 0.00 53 1012.3
20260831050943 85 134 2.0 10.0 0.00 0.00 0.00 53 1012.2
20260831050436 85 197 2.0 7.0 0.00 0.00 0.00 53 1012.1
20260831045423 85 137 2.0 10.0 0.00 0.00 0.00 53 1012.1
20260831044918 85 143 2.0 6.0 0.00 0.00 0.00 53 1012.0
20260831044412 86 140 2.0 8.0 0.00 0.00 0.00 53 1012.1
20260831043905 86 157 2.0 6.0 0.00 0.00 0.00 52 1012.1
20260831043359 86 144 2.0 11.0 0.00 0.00 0.00 52 1012.1
20260831042853 86 123 2.0 11.0 0.00 0.00 0.00 52 1012.0
20260831041841 86 135 3.0 10.0 0.00 0.00 0.00 52 1012.0
20260831041335 86 186 3.0 9.0 0.00 0.00 0.00 51 1012.1
20260831040829 87 134 3.0 8.0 0.00 0.00 0.00 51 1011.9
20260831040323 87 157 3.0 8.0 0.00 0.00 0.00 51 1012.0
20260831035312 87 166 3.0 7.0 0.00 0.00 0.00 51 1012.0
20260831034806 87 166 3.0 7.0 0.00 0.00 0.00 50 1012.0
20260831033753 87 89 3.0 9.0 0.00 0.00 0.00 50 1011.9
20260831033248 87 268 3.0 7.0 0.00 0.00 0.00 50 1011.9
20260831032741 88 166 4.0 9.0 0.00 0.00 0.00 50 1011.8
20260831032235 88 126 4.0 11.0 0.00 0.00 0.00 49 1011.8
20260831031729 88 138 4.0 11.0 0.00 0.00 0.00 49 1011.8
20260831030717 88 132 4.0 9.0 0.00 0.00 0.00 49 1011.7
20260831030211 88 146 3.0 10.0 0.00 0.00 0.00 49 1011.7
20260831025705 88 134 3.0 10.0 0.00 0.00 0.00 48 1011.7
20260831025200 89 138 4.0 14.0 0.00 0.00 0.00 48 1011.7
20260831024653 89 150 4.0 14.0 0.00 0.00 0.00 48 1011.7
20260831024147 89 166 4.0 11.0 0.00 0.00 0.00 48 1011.8
20260831023641 89 150 4.0 9.0 0.00 0.00 0.00 48 1011.6
20260831023135 89 117 4.0 11.0 0.00 0.00 0.00 48 1011.7
20260831022123 89 156 3.0 15.0 0.00 0.00 0.00 48 1011.6
20260831021111 89 163 4.0 16.0 0.00 0.00 0.00 48 1011.5
20260831020606 89 172 3.0 11.0 0.00 0.00 0.00 48 1011.6
20260831020107 89 124 3.0 9.0 0.00 0.00 0.00 48 1011.5
20260831015107 90 180 4.0 12.0 0.00 0.00 0.00 48 1011.2
20260831014607 90 172 4.0 10.0 0.00 0.00 0.00 48 1011.3
20260831014107 90 148 3.0 9.0 0.00 0.00 0.00 48 1011.2
20260831013605 90 154 3.0 10.0 0.00 0.00 0.00 49 1011.1
20260831013104 90 158 3.0 11.0 0.00 0.00 0.00 49 1011.1
20260831012605 90 169 3.0 11.0 0.00 0.00 0.00 48 1011.1
20260831012105 91 148 3.0 9.0 0.00 0.00 0.00 48 1011.1
20260831011608 91 173 3.0 8.0 0.00 0.00 0.00 48 1011.0
20260831011105 91 115 2.0 6.0 0.00 0.00 0.00 48 1011.1
20260831010605 92 164 3.0 6.0 0.00 0.00 0.00 47 1011.0
20260831010104 92 120 3.0 6.0 0.00 0.00 0.00 47 1011.0
20260831004600 93 123 3.0 7.0 0.00 0.00 0.00 45 1011.0
20260831004101 94 158 3.0 7.0 0.00 0.00 0.00 45 1011.0
20260831003600 94 135 3.0 7.0 0.00 0.00 0.00 45 1011.0
20260831003101 94 119 3.0 7.0 0.00 0.00 0.00 45 1010.9
20260831002600 94 159 2.0 5.0 0.00 0.00 0.00 45 1011.0
20260831002100 95 111 2.0 7.0 0.00 0.00 0.00 44 1011.0
20260831001601 95 158 2.0 7.0 0.00 0.00 0.00 44 1011.1
20260830235600 97 159 2.0 7.0 0.00 0.00 0.00 42 1010.9
20260830234601 97 143 3.0 7.0 0.00 0.00 0.00 40 1010.8
20260830234101 98 136 2.0 6.0 0.00 0.00 0.00 40 1010.8
20260830233601 98 168 2.0 6.0 0.00 0.00 0.00 40 1010.7
20260830232059 99 148 2.0 9.0 0.00 0.00 0.00 39 1010.8
20260830231553 99 135 2.0 9.0 0.00 0.00 0.00 38 1010.7